Weather History for KPUB - August, 2013

Change the Weather History Date:

Sunday, August 18, 2013

  Actual Average Record
Temperature  
Mean Temperature 76 °F 73 °F  
Max Temperature 91 °F 89 °F 103 °F (1986)
Min Temperature 61 °F 58 °F 48 °F (1960)
Degree Days  
Heating Degree Days 0 0  
Month to date heating degree days 0 0  
Since 1 June heating degree days 17 26  
Since 1 July heating degree days 0 1  
Cooling Degree Days 11 8  
Month to date cooling degree days 155 170  
Year to date cooling degree days 894 715  
Since 1 June cooling degree days 821 681  
Growing Degree Days 26 (Base 50)    
Moisture  
Dew Point 57 °F    
Average Humidity 62    
Maximum Humidity 93    
Minimum Humidity 30    
Precipitation  
Precipitation 0.00 in 0.08 in 1.75 in (1953)
Month to date precipitation 3.26 1.48  
Year to date precipitation 7.14 9.39  
Snow  
Snow 0.00 in 0.00 in 0.00 in (2002)
Month to date snowfall 0.0 0.0  
Since 1 June snowfall T 0.0  
Since 1 July snowfall T 0.0  
Snow Depth 0.00 in    
Sea Level Pressure  
Sea Level Pressure 29.96 in    
Wind  
Wind Speed 6 mph (ESE)    
Max Wind Speed 17 mph    
Max Gust Speed 21 mph    
Visibility 8 miles    
Events Thunderstorm    
T = Trace of Precipitation, MM = Missing Value Source: NWS Daily Summary

Daily Weather History Graph

Daily Weather History Graph

Search for Another Location

Airport or City:

Trip Planner

Search our weather history database for the weather conditions in past years. The results will help you decide how hot, cold, wet, or windy it might be!

Date:

Astronomy

Aug. 18, 2013 Rise Set
Actual Time 6:15 AM MDT 7:47 PM MDT
Civil Twilight 5:47 AM MDT 8:15 PM MDT
Nautical Twilight 5:13 AM MDT 8:48 PM MDT
Astronomical Twilight 4:38 AM MDT 9:24 PM MDT
Moon 5:54 PM MDT (8/18) 3:28 AM MDT (8/18)
Length of Visible Light 14h 27m
Length of Day
13h 31m
Waxing Gibbous, 92% of the Moon is Illuminated
Aug 18
Waxing Gibbous
Aug 20
Full
Aug 28
Last Quarter
Sep 5
New
Sep 12
First Quarter

Hourly Weather History & Observations

Time (MDT) Temp. Heat Index Dew Point Humidity Pressure Visibility Wind Dir Wind Speed Gust Speed Precip Events Conditions
12:53 AM 70.0 °F - 61.0 °F 73% 29.90 in 10.0 mi NE 3.5 mph - N/A   Clear
1:53 AM 68.0 °F - 61.0 °F 78% 29.90 in 10.0 mi North 8.1 mph - N/A   Clear
2:53 AM 66.9 °F - 62.1 °F 84% 29.88 in 10.0 mi North 9.2 mph - N/A   Clear
3:53 AM 66.0 °F - 61.0 °F 84% 29.88 in 10.0 mi North 6.9 mph - N/A   Clear
4:53 AM 64.9 °F - 61.0 °F 87% 29.89 in 10.0 mi Calm Calm - N/A   Clear
5:53 AM 63.0 °F - 60.1 °F 90% 29.91 in 10.0 mi Calm Calm - N/A   Clear
6:53 AM 62.1 °F - 60.1 °F 93% 29.93 in 9.0 mi Calm Calm - N/A   Clear
7:53 AM 63.0 °F - 61.0 °F 93% 29.95 in 0.2 mi SE 4.6 mph - N/A   Clear
8:07 AM 62.6 °F - 60.8 °F 94% 30.13 in 0.2 mi SE 4.6 mph - N/A   Mist
8:31 AM 62.6 °F - 60.8 °F 94% 30.14 in 1.0 mi SSE 5.8 mph - N/A   Overcast
8:41 AM 62.6 °F - 62.6 °F 100% 30.14 in 1.0 mi ESE 3.5 mph - N/A   Overcast
8:53 AM 64.0 °F - 62.1 °F 93% 29.96 in 1.2 mi SSE 4.6 mph - N/A   Overcast
9:12 AM 64.4 °F - 62.6 °F 94% 30.14 in 2.0 mi ESE 4.6 mph - N/A   Overcast
9:29 AM 66.2 °F - 62.6 °F 88% 30.14 in 2.0 mi ESE 4.6 mph - N/A   Overcast
9:53 AM 68.0 °F - 62.1 °F 81% 29.96 in 2.0 mi East 5.8 mph - N/A   Scattered Clouds
10:04 AM 68.0 °F - 62.6 °F 83% 30.14 in 9.0 mi Variable 3.5 mph - N/A   Partly Cloudy
10:53 AM 73.0 °F - 61.0 °F 66% 29.94 in 10.0 mi Calm Calm - N/A   Clear
11:53 AM 81.0 °F 81.6 °F 60.1 °F 49% 29.90 in 10.0 mi Calm Calm - N/A   Clear
12:53 PM 84.9 °F 84.2 °F 57.9 °F 40% 29.88 in 10.0 mi SE 4.6 mph - N/A   Clear
1:53 PM 88.0 °F 86.5 °F 55.9 °F 34% 29.86 in 10.0 mi Variable 6.9 mph - N/A   Clear
2:53 PM 90.0 °F 87.9 °F 55.0 °F 30% 29.84 in 10.0 mi ESE 6.9 mph - N/A   Clear
3:53 PM 88.0 °F 86.9 °F 57.9 °F 36% 29.85 in 10.0 mi East 8.1 mph - N/A   Clear
4:25 PM 89.6 °F 87.7 °F 55.4 °F 31% 30.06 in 10.0 mi East 5.8 mph - N/A Thunderstorm Clear
4:48 PM 89.6 °F 87.7 °F 55.4 °F 31% 30.07 in 10.0 mi South 6.9 mph - N/A   Clear
4:53 PM 88.0 °F 87.1 °F 59.0 °F 37% 29.86 in 10.0 mi SW 10.4 mph - N/A Thunderstorm Clear
5:00 PM 87.8 °F 86.1 °F 55.4 °F 33% 30.06 in 10.0 mi South 3.5 mph - N/A   Clear
5:53 PM 88.0 °F - 42.1 °F 20% 29.89 in 10.0 mi NW 6.9 mph - N/A   Mostly Cloudy
6:22 PM 78.8 °F - 50.0 °F 36% 30.09 in 10.0 mi SE 11.5 mph - N/A   Clear
6:53 PM 81.0 °F - 50.0 °F 34% 29.91 in 10.0 mi East 5.8 mph - N/A   Clear
7:53 PM 80.1 °F - 51.1 °F 36% 29.92 in 10.0 mi NW 9.2 mph - N/A   Clear
8:53 PM 81.0 °F - 46.9 °F 30% 29.93 in 10.0 mi NNW 9.2 mph - N/A   Clear
9:53 PM 77.0 °F - 51.1 °F 40% 29.97 in 10.0 mi South 3.5 mph - N/A   Clear
10:53 PM 75.9 °F - 50.0 °F 40% 29.96 in 10.0 mi NNW 10.4 mph - N/A   Clear
11:53 PM 73.0 °F - 53.1 °F 49% 29.96 in 10.0 mi ENE 9.2 mph - N/A   Clear